Volver al catálogo

CZ-6A DEB

ActivoSSO
NORAD 54467·DEBRIS·🇨🇳 China

Lanzado Nov 11, 2022 desde Taiyuan Satellite Launch Center

Loading…

Próximos Pases (próximas 24 horas)

TLE

ActualizadoSource: Space-Track

Época: Sep 14, 2026, 00:53 UTC

1 54467U 22151GT  26257.03686432  .00002243  00000-0  59399-3 0  9990
2 54467  98.5982 297.1476 0097521  90.7814 270.4553 14.46972961201512

Sigue CZ-6A DEB en tiempo real con AllMySat

Download on the App Store